User: anonymous   Login
Location: Bougoura
(13.1861°N, 5.0773°W)
Time: 17:13:12
(UTC+00:00)
Language:

Okean O Rocket - Orbit

View from above orbital plane
View from above orbital plane
View from above satellite
View from above satellite

Ground track
Ground track

The orbit data is extracted from the following two-line orbital elements,

1 25861U 99039B   21125.92533583  .00000041  00000-0  13089-4 0  9991
2 25861  98.2063 140.4678 0015171 197.5903 224.1341 14.78636930175277
Epoch (UTC): 05 May 2021 22:12:29
Eccentricity: 0.0015171
inclination: 98.2063°
perigee height: 623 km
apogee height: 644 km
right ascension of ascending node: 140.4678°
argument of perigee: 197.5903°
revolutions per day: 14.78636930
mean anomaly at epoch: 224.1341°
orbit number at epoch: 17527

The dashed part of the orbit path shows where the satellite is in the earth's shadow,  

DLR